Find Kosmos-574

NORAD ID: 6707 Int'l Des: 1973-042 Owner: VMF Country: SU operational
LEOCIRCULARPOLAR

リアルタイム位置

3D地球を読み込み中...

Kosmos-574について

説明を読み込み中...

次回通過

Passes for default location (London). Set your location on the main map for personalized predictions.

高度履歴

Loading altitude history...

軌道要素

1 06707U 73042A 26107.29856321 .00000039 00000-0 25820-4 0 9991
2 06707 82.9492 238.5699 0022389 59.3936 322.9074 13.72417408 82326
Epoch: Apr 17, 2026 • Age: 11 hours

現在のステータス

高度 984.9 km
速度 7.37 km/s
衛星直下点 61.27°N, 137.49°E
タイプ other

Most Searched